Hourly Data Report for October 17, 2017

All times are specified in Local Standard Time (LST). Add 1 hour to adjust for Daylight Saving Time where and when it is observed.

ST. PETERS
PRINCE EDWARD ISLAND

46°27'01.000" N
62°34'33.000" W
29.70 m
8300562
71310
ZSP

Download Data

Hourly Data (October 2017)
Hourly Data Report for October 17, 2017
Temp Definition
°C
Dew Point Temp Definition
°C
Rel Hum Definition
%
Wind Dir Definition
10's deg

Wind Spd Definition
km/h
Visibility Definition
km
Stn Press Definition
kPa
Hmdx Definition


Wind Chill Definition


Weather Definition


TIME
00:00 8.4 3.6 72 35 13   101.09     LegendNANA
01:00 8.4 3.8 73 36 12   101.10     LegendNANA
02:00 8.4 3.8 73 35 13   101.11     LegendNANA
03:00 8.2 3.5 72 34 10   101.12     LegendNANA
04:00 7.8 2.8 71 34 13   101.14     LegendNANA
05:00 7.8 2.8 70 33 12   101.20     LegendNANA
06:00 7.5 2.7 71 32 13   101.26     LegendNANA
07:00 6.9 2.9 76 31 13   101.30     LegendNANA
08:00 7.4 3.1 74 33 16   101.36     LegendNANA
09:00 7.4 2.6 71 32 20   101.42     LegendNANA
10:00 7.9 -0.4 56 32 22   101.43     LegendNANA
11:00 8.2 -0.7 53 32 22   101.46     LegendNANA
12:00 7.7 -2.0 50 32 18   101.46     LegendNANA
13:00 7.8 -2.3 49 32 19   101.47     LegendNANA
14:00 7.5 -0.3 58 32 16   101.52     LegendNANA
15:00 7.8 -0.9 54 31 20   101.57     LegendNANA
16:00 6.8 -0.8 58 31 17   101.58     LegendNANA
17:00 6.3 -2.1 55 30 16   101.58     LegendNANA
18:00 5.2 -1.2 63 28 11   101.62     LegendNANA
19:00 6.2 -0.4 63 28 10   101.65     LegendNANA
20:00 2.9 -0.8 77 20 10   101.64     LegendNANA
21:00 2.6 -1.6 73 20 9   101.70     LegendNANA
22:00 1.4 -2.7 74 16 7   101.70     LegendNANA
23:00 1.3 -2.2 77 16 9   101.65     LegendNANA

Notes on Data Quality.

Legend

  • E = Estimated
  • M = Missing
  • NA = Not Available
  • ‡ = Partner data that is not subject to review by the National Climate Archives
Date modified: